NANOSAT(1)

Satellite information

Favourite Embed

Satellite Type and Status

PAYLOADIN ORBIT

Key statistics

Satellite NANOSAT(1) at a glance.

Uptime

7666

Days in orbit

Revolutions

≈ 14.8

Per day

Orbit

SSO

Sun Synchronous Orbit

Inclination

98.2

Latest

Satellite identification and parameters

Extended collection of information and parameters for NANOSAT(1).

Object identification

Identified? True

Debris? False

Object name: NANOSAT(1)

International designator: 2004-049B

Object number (NORAD): 28493

Object ID (CCSDS): 28493

Country: SPAIN (SPN)

Current information (Y/N): Y

RCS size: MEDIUM

Orbital parameters

Period: 97.323 minutes

Inclination: 98.2014 deg

SMA: 7008.696 km

Apoapsis: 633.648 km

Periapsis: 627.474 km

RAAN: 115.1502 deg

Eccentricy: 0.00044045

Argument of periapsis: 154.6988 deg

Mean anomaly: 205.4439 deg

Mean motion: 14.7960901 rev/day

Mean motion (dot): 0.00002059 rev/day2

B* drag term: 0.00028205432 1/REarth

Two-line elements (TLE)

Creation date: Dec. 14, 2025, 3:07 a.m.

Reference frame: TEME

Reference center: EARTH

Epoch: Dec. 13, 2025, 3:23 p.m. UTC

TLE line 0: 0 NANOSAT(1)

TLE line 1: 1 28493U 04049B 25347.64146804 .00002059 00000-0 28205-3 0 9993

TLE line 2: 2 28493 98.2014 115.1502 0004404 154.6988 205.4439 14.79609010128005

Live tracking on map

Real-time ground track for satellite NANOSAT(1).

In-orbit conjunctions

There are no conjunctions computed for NANOSAT(1), at the moment. Check back to stay up to date, as we update our databases every day.

Go to all conjunctions

Associated space launch

Helios and Essaim are French miltary satellites for observation of Earth. Parasol is an Earth Observation research satellite.Nanosat 01 is a small technologu demonstator for the spanish space agency INTA.

NANOSAT(1) was lifted into orbit during the mission ‘Ariane 5 G+ | Helios 2A, Essaim 1, 2, 3, 4, PARASOL, Nanosat 01’, on board a Ariane 5 G+ space rocket.

The launch took place on Dec. 18, 2004, 4:26 p.m. from Ariane Launch Area 3.

For more information about the launch, click the button.

Launch to space Ariane 5 G+ | Helios 2A, Essaim 1, 2, 3, 4, PARASOL, Nanosat 01
Ariane 5 G+ | Helios 2A, Essaim 1, 2, 3, 4, PARASOL, Nanosat 01

Agency: N/A

Status: Launch Successful

Launch date: Dec. 18, 2004, 4:26 p.m. UTC

Rocket: Ariane 5 G+

Launch pad: Ariane Launch Area 3

Location: Guiana Space Centre, French Guiana

...

Latest news about this satellite

There are no fresh news available about this satellite. Check back as we update our databases every day.


Newsletter sign-up

Weekly statistics, charts and insights to help you stay on top of the space industry.